{"data":{"norad_id":56757,"epoch":"2026-05-24T21:01:18.412320Z","epoch_age_seconds":92507,"freshness":"FRESH","line1":"1 56757U 23075A   26144.87590755  .00000141  00000+0  00000+0 0  9994","line2":"2 56757   0.0812  32.0238 0004940 347.3899 204.3756  1.00271605 10887","mean_motion":1.00271605,"eccentricity":0.000494,"inclination_deg":0.0812,"raan_deg":32.0238,"arg_perigee_deg":347.3899,"mean_anomaly_deg":204.3756,"bstar":0,"rev_number":1088,"period_min":1436.0994820019,"perigee_km":35765.816019284,"apogee_km":35807.474824317,"semimajor_km":42164.7824218,"source":"CELESTRAK","updated_at":"2026-05-25T13:38:14.141118Z"}}